TimeMST,TemperatureF,Dew PointF,Humidity,Sea Level PressureIn,VisibilityMPH,Wind Direction,Wind SpeedMPH,Gust SpeedMPH,PrecipitationIn,Events,Conditions,WindDirDegrees,DateUTC
12:15 AM,30.2,23.0,75,30.33,10.0,Calm,Calm,-,N/A,,Clear,0,2013-11-08 07:15:00
12:35 AM,30.2,21.2,69,30.33,10.0,NNW,3.5,-,N/A,,Clear,330,2013-11-08 07:35:00
12:55 AM,30.2,23.0,75,30.32,10.0,Calm,Calm,-,N/A,,Clear,0,2013-11-08 07:55:00
1:15 AM,28.4,21.2,74,30.32,10.0,Calm,Calm,-,N/A,,Clear,0,2013-11-08 08:15:00
1:35 AM,28.4,21.2,74,30.31,10.0,Calm,Calm,-,N/A,,Clear,0,2013-11-08 08:35:00
1:55 AM,30.2,21.2,69,30.31,10.0,NNE,3.5,-,N/A,,Clear,20,2013-11-08 08:55:00
2:15 AM,32.0,21.2,64,30.31,10.0,NNE,3.5,-,N/A,,Clear,20,2013-11-08 09:15:00
2:35 AM,28.4,21.2,74,30.31,10.0,North,3.5,-,N/A,,Clear,10,2013-11-08 09:35:00
2:55 AM,30.2,21.2,69,30.31,10.0,Calm,Calm,-,N/A,,Clear,0,2013-11-08 09:55:00
3:15 AM,28.4,21.2,74,30.30,10.0,Calm,Calm,-,N/A,,Clear,0,2013-11-08 10:15:00
3:35 AM,24.8,19.4,80,30.29,10.0,SE,3.5,-,N/A,,Clear,130,2013-11-08 10:35:00
3:55 AM,26.6,21.2,80,30.29,10.0,ESE,3.5,-,N/A,,Clear,110,2013-11-08 10:55:00
4:15 AM,26.6,19.4,74,30.29,10.0,Calm,Calm,-,N/A,,Clear,0,2013-11-08 11:15:00
4:35 AM,26.6,19.4,74,30.28,10.0,North,4.6,-,N/A,,Clear,360,2013-11-08 11:35:00
4:55 AM,26.6,19.4,74,30.28,10.0,North,3.5,-,N/A,,Clear,360,2013-11-08 11:55:00
5:15 AM,26.6,19.4,74,30.27,10.0,Calm,Calm,-,N/A,,Clear,0,2013-11-08 12:15:00
5:35 AM,26.6,19.4,74,30.27,10.0,Calm,Calm,-,N/A,,Clear,0,2013-11-08 12:35:00
5:55 AM,24.8,17.6,74,30.27,10.0,Calm,Calm,-,N/A,,Clear,0,2013-11-08 12:55:00
6:15 AM,24.8,17.6,74,30.26,10.0,Calm,Calm,-,N/A,,Clear,0,2013-11-08 13:15:00
6:35 AM,26.6,17.6,69,30.26,10.0,South,3.5,-,N/A,,Clear,190,2013-11-08 13:35:00
6:55 AM,26.6,17.6,69,30.26,10.0,South,5.8,-,N/A,,Clear,190,2013-11-08 13:55:00
7:15 AM,26.6,17.6,69,30.27,10.0,NNW,3.5,-,N/A,,Clear,330,2013-11-08 14:15:00
7:35 AM,26.6,19.4,74,30.28,10.0,Calm,Calm,-,N/A,,Clear,0,2013-11-08 14:35:00
7:55 AM,28.4,21.2,74,30.28,10.0,Calm,Calm,-,N/A,,Clear,0,2013-11-08 14:55:00
8:15 AM,32.0,21.2,64,30.29,10.0,Calm,Calm,-,N/A,,Clear,0,2013-11-08 15:15:00
8:35 AM,35.6,24.8,65,30.29,10.0,WSW,3.5,-,N/A,,Clear,240,2013-11-08 15:35:00
8:55 AM,37.4,24.8,60,30.30,10.0,Calm,Calm,-,N/A,,Clear,0,2013-11-08 15:55:00
9:15 AM,37.4,24.8,60,30.29,10.0,Calm,Calm,-,N/A,,Clear,0,2013-11-08 16:15:00
9:35 AM,39.2,23.0,52,30.28,10.0,Calm,Calm,-,N/A,,Clear,0,2013-11-08 16:35:00
9:55 AM,41.0,21.2,45,30.27,10.0,Calm,Calm,-,N/A,,Clear,0,2013-11-08 16:55:00
10:15 AM,42.8,21.2,42,30.26,10.0,Calm,Calm,-,N/A,,Clear,0,2013-11-08 17:15:00
10:35 AM,44.6,21.2,39,30.25,10.0,Calm,Calm,-,N/A,,Clear,0,2013-11-08 17:35:00
10:55 AM,46.4,19.4,34,30.25,10.0,Calm,Calm,-,N/A,,Clear,0,2013-11-08 17:55:00
11:15 AM,48.2,21.2,34,30.23,10.0,West,6.9,-,N/A,,Clear,260,2013-11-08 18:15:00
11:35 AM,48.2,21.2,34,30.23,10.0,Calm,Calm,-,N/A,,Clear,0,2013-11-08 18:35:00
11:55 AM,50.0,23.0,35,30.22,10.0,Calm,Calm,-,N/A,,Clear,0,2013-11-08 18:55:00
12:15 PM,51.8,23.0,33,30.20,10.0,SSW,8.1,-,N/A,,Clear,210,2013-11-08 19:15:00
12:35 PM,51.8,26.6,38,30.18,10.0,SSW,8.1,-,N/A,,Clear,210,2013-11-08 19:35:00
12:55 PM,51.8,26.6,38,30.17,10.0,SW,9.2,-,N/A,,Clear,220,2013-11-08 19:55:00
1:15 PM,53.6,26.6,35,30.15,10.0,SW,10.4,-,N/A,,Clear,230,2013-11-08 20:15:00
1:35 PM,53.6,24.8,33,30.14,10.0,SW,13.8,17.3,N/A,,Clear,230,2013-11-08 20:35:00
1:55 PM,55.4,26.6,33,30.14,10.0,SW,11.5,-,N/A,,Clear,230,2013-11-08 20:55:00
2:15 PM,55.4,24.8,31,30.13,10.0,WSW,13.8,17.3,N/A,,Clear,240,2013-11-08 21:15:00
2:35 PM,55.4,24.8,31,30.13,10.0,WSW,9.2,17.3,N/A,,Clear,240,2013-11-08 21:35:00
2:55 PM,55.4,23.0,29,30.13,10.0,SW,11.5,16.1,N/A,,Clear,220,2013-11-08 21:55:00
3:15 PM,55.4,24.8,31,30.12,10.0,WSW,9.2,-,N/A,,Clear,240,2013-11-08 22:15:00
3:35 PM,55.4,24.8,31,30.12,10.0,SW,10.4,-,N/A,,Clear,230,2013-11-08 22:35:00
3:55 PM,53.6,23.0,30,30.13,10.0,SW,9.2,-,N/A,,Clear,230,2013-11-08 22:55:00
4:15 PM,53.6,24.8,33,30.13,10.0,SW,10.4,-,N/A,,Clear,220,2013-11-08 23:15:00
4:35 PM,51.8,24.8,35,30.13,10.0,SSW,8.1,-,N/A,,Clear,210,2013-11-08 23:35:00
4:55 PM,48.2,24.8,40,30.13,10.0,SW,4.6,-,N/A,,Clear,220,2013-11-08 23:55:00
5:15 PM,46.4,24.8,43,30.14,10.0,ESE,4.6,-,N/A,,Clear,110,2013-11-09 00:15:00
5:35 PM,48.2,21.2,34,30.14,10.0,Calm,Calm,-,N/A,,Clear,0,2013-11-09 00:35:00
5:55 PM,48.2,21.2,34,30.14,10.0,WSW,3.5,-,N/A,,Clear,250,2013-11-09 00:55:00
6:15 PM,46.4,21.2,37,30.14,10.0,SW,5.8,-,N/A,,Clear,230,2013-11-09 01:15:00
6:35 PM,41.0,24.8,53,30.16,10.0,East,4.6,-,N/A,,Clear,90,2013-11-09 01:35:00
6:55 PM,42.8,23.0,46,30.17,10.0,ENE,4.6,-,N/A,,Clear,70,2013-11-09 01:55:00
7:15 PM,39.2,21.2,49,30.17,10.0,WNW,3.5,-,N/A,,Clear,300,2013-11-09 02:15:00
7:35 PM,41.0,21.2,45,30.17,10.0,Calm,Calm,-,N/A,,Clear,0,2013-11-09 02:35:00
7:55 PM,35.6,24.8,65,30.18,10.0,NE,4.6,-,N/A,,Clear,50,2013-11-09 02:55:00
8:15 PM,35.6,24.8,65,30.18,10.0,ENE,3.5,-,N/A,,Clear,60,2013-11-09 03:15:00
8:35 PM,33.8,24.8,70,30.19,10.0,East,6.9,-,N/A,,Clear,80,2013-11-09 03:35:00
8:55 PM,35.6,24.8,65,30.19,10.0,ESE,4.6,-,N/A,,Clear,110,2013-11-09 03:55:00
9:15 PM,33.8,23.0,65,30.19,10.0,ENE,4.6,-,N/A,,Clear,70,2013-11-09 04:15:00
9:35 PM,33.8,24.8,70,30.20,10.0,ENE,8.1,-,N/A,,Clear,70,2013-11-09 04:35:00
9:55 PM,33.8,23.0,65,30.20,10.0,ENE,4.6,-,N/A,,Clear,60,2013-11-09 04:55:00
10:15 PM,33.8,23.0,65,30.20,10.0,NNE,4.6,-,N/A,,Clear,20,2013-11-09 05:15:00
10:35 PM,33.8,21.2,60,30.20,10.0,North,3.5,-,N/A,,Clear,360,2013-11-09 05:35:00
10:55 PM,32.0,23.0,69,30.21,10.0,North,3.5,-,N/A,,Clear,350,2013-11-09 05:55:00
11:15 PM,32.0,23.0,69,30.21,10.0,Calm,Calm,-,N/A,,Clear,0,2013-11-09 06:15:00
11:35 PM,30.2,21.2,69,30.21,10.0,Calm,Calm,-,N/A,,Clear,0,2013-11-09 06:35:00
11:55 PM,30.2,23.0,75,30.21,10.0,ENE,3.5,-,N/A,,Clear,70,2013-11-09 06:55:00